EW7948 Weather Reports


Display with metric or nautical units.
time (UTC)temp
F
wind
direction
speed
MPH
gust
MPH
rain 1hr
in
rain 24hr
in
rain mn
in
humidity
%
barometer
mb
20260510223046 83 169 1.0 9.0 0.00 0.00 0.00 11 1010.0
20260510221612 83 111 2.0 10.0 0.00 0.00 0.00 10 1010.1
20260510220012 85 253 6.0 11.0 0.00 0.00 0.00 10 1010.3
20260510214525 83 194 4.0 10.0 0.00 0.00 0.00 11 1010.5
20260510213002 82 51 5.0 10.0 0.00 0.00 0.00 10 1010.7
20260510211528 84 355 2.0 5.0 0.00 0.00 0.00 11 1010.9
20260510210026 82 302 3.0 6.0 0.00 0.00 0.00 12 1011.2
20260510204538 80 20 4.0 8.0 0.00 0.00 0.00 11 1011.4
20260510203036 80 349 3.0 9.0 0.00 0.00 0.00 13 1011.6
20260510201536 78 316 4.0 9.0 0.00 0.00 0.00 13 1011.8
20260510200034 79 15 7.0 12.0 0.00 0.00 0.00 13 1011.9
20260510194534 80 60 2.0 6.0 0.00 0.00 0.00 12 1011.9
20260510193035 80 227 2.0 8.0 0.00 0.00 0.00 14 1012.0
20260510191538 80 161 4.0 10.0 0.00 0.00 0.00 14 1012.1
20260510184622 77 302 3.0 8.0 0.00 0.00 0.00 15 1012.6
20260510183024 77 209 3.0 6.0 0.00 0.00 0.00 15 1012.7
20260510181519 75 42 2.0 10.0 0.00 0.00 0.00 16 1012.7
20260510180019 75 69 2.0 10.0 0.00 0.00 0.00 16 1012.7
20260510174517 76 346 2.0 9.0 0.00 0.00 0.00 15 1012.8
20260510173015 75 22 2.0 5.0 0.00 0.00 0.00 17 1013.0
20260510171510 73 324 4.0 11.0 0.00 0.00 0.00 17 1013.1
20260510170026 73 346 2.0 12.0 0.00 0.00 0.00 16 1013.3
20260510164522 72 316 3.0 13.0 0.00 0.00 0.00 18 1013.1
20260510163102 72 17 7.0 12.0 0.00 0.00 0.00 18 1013.2
20260510161511 71 26 7.0 12.0 0.00 0.00 0.00 19 1013.3
20260510160007 70 345 5.0 11.0 0.00 0.00 0.00 20 1013.4
20260510154508 70 5 6.0 11.0 0.00 0.00 0.00 20 1013.5
20260510153010 69 355 7.0 11.0 0.00 0.00 0.00 20 1013.6
20260510151503 68 355 9.0 13.0 0.00 0.00 0.00 22 1013.4
20260510150003 67 22 9.0 14.0 0.00 0.00 0.00 22 1013.4
20260510144523 67 5 10.0 16.0 0.00 0.00 0.00 23 1013.4
20260510143007 66 355 9.0 15.0 0.00 0.00 0.00 24 1013.3
20260510141507 64 24 5.0 10.0 0.00 0.00 0.00 27 1013.3
20260510140006 60 109 0.0 4.0 0.00 0.00 0.00 31 1013.3
20260510134605 57 120 1.0 3.0 0.00 0.00 0.00 34 1013.2
20260510133011 54 122 0.0 1.0 0.00 0.00 0.00 31 1013.2
20260510131525 52 121 2.0 3.0 0.00 0.00 0.00 30 1013.1
20260510130029 51 121 0.0 1.0 0.00 0.00 0.00 30 1012.9
20260510124559 51 130 3.0 4.0 0.00 0.00 0.00 30 1012.6
20260510123048 51 130 1.0 3.0 0.00 0.00 0.00 30 1012.4
20260510121523 51 130 0.0 0.0 0.00 0.00 0.00 28 1012.3
20260510120015 52 130 1.0 3.0 0.00 0.00 0.00 29 1012.0
20260510114509 52 130 0.0 2.0 0.00 0.00 0.00 26 1011.8
20260510113013 53 130 0.0 2.0 0.00 0.00 0.00 28 1011.7
20260510111557 54 130 0.0 1.0 0.00 0.00 0.00 26 1011.4
20260510110021 55 130 1.0 3.0 0.00 0.00 0.00 23 1011.1
20260510104514 55 130 2.0 4.0 0.00 0.00 0.00 23 1010.9
20260510103013 55 130 1.0 4.0 0.00 0.00 0.00 24 1010.7
20260510101512 55 40 0.0 3.0 0.00 0.00 0.00 24 1010.5
20260510100009 56 351 0.0 0.0 0.00 0.00 0.00 23 1010.4
20260510094507 57 351 0.0 3.0 0.00 0.00 0.00 21 1010.3
20260510093004 58 350 0.0 2.0 0.00 0.00 0.00 19 1010.0
20260510091600 59 350 0.0 2.0 0.00 0.00 0.00 22 1009.9
20260510090056 61 348 0.0 0.0 0.00 0.00 0.00 19 1009.6
20260510084600 62 348 0.0 3.0 0.00 0.00 0.00 16 1009.4
20260510083110 63 348 1.0 3.0 0.00 0.00 0.00 17 1009.4
20260510081604 64 347 2.0 4.0 0.00 0.00 0.00 17 1009.1
20260510080043 65 346 2.0 9.0 0.00 0.00 0.00 17 1009.1
20260510074542 65 340 2.0 4.0 0.00 0.00 0.00 16 1008.9
20260510073047 65 344 4.0 9.0 0.00 0.00 0.00 16 1008.8
20260510071537 65 355 2.0 4.0 0.00 0.00 0.00 15 1008.6
20260510070037 65 332 4.0 9.0 0.00 0.00 0.00 15 1008.4
20260510064632 67 319 0.0 2.0 0.00 0.00 0.00 13 1008.3
20260510063040 69 319 0.0 3.0 0.00 0.00 0.00 12 1008.2
20260510061540 70 319 4.0 8.0 0.00 0.00 0.00 11 1007.8
20260510060040 70 327 8.0 13.0 0.00 0.00 0.00 10 1007.5
20260510054531 71 326 6.0 12.0 0.00 0.00 0.00 11 1007.3
20260510053029 71 344 9.0 17.0 0.00 0.00 0.00 11 1007.2
20260510051529 71 338 7.0 16.0 0.00 0.00 0.00 13 1007.1
20260510050028 71 331 6.0 14.0 0.00 0.00 0.00 16 1007.0
20260510044526 72 340 10.0 14.0 0.00 0.00 0.00 13 1006.9
20260510043024 72 336 15.0 24.0 0.00 0.00 0.00 13 1006.4
20260510041532 73 339 10.0 16.0 0.00 0.00 0.00 13 1006.0
20260510040023 74 360 8.0 16.0 0.00 0.00 0.00 10 1005.8
20260510034600 74 348 8.0 16.0 0.00 0.00 0.00 9 1005.6
20260510033057 74 346 10.0 15.0 0.00 0.00 0.00 8 1005.2
20260510031603 75 343 10.0 17.0 0.00 0.00 0.00 7 1004.9
20260510030058 76 345 13.0 17.0 0.00 0.00 0.00 6 1004.6
20260510024528 76 342 13.0 20.0 0.00 0.00 0.00 7 1004.3
20260510023017 76 355 12.0 18.0 0.00 0.00 0.00 7 1003.9
20260510021517 77 350 9.0 13.0 0.00 0.00 0.00 9 1003.7
20260510020117 78 346 12.0 16.0 0.00 0.00 0.00 7 1003.5
20260510014515 80 355 10.0 16.0 0.00 0.00 0.00 7 1003.5
20260510013014 81 351 9.0 16.0 0.00 0.00 0.00 7 1003.2
20260510011514 82 24 10.0 17.0 0.00 0.00 0.00 6 1002.9
20260510010013 82 341 8.0 12.0 0.00 0.00 0.00 8 1002.8
20260510004513 83 321 9.0 16.0 0.00 0.00 0.00 7 1002.8
20260510003013 83 349 9.0 12.0 0.00 0.00 0.00 6 1002.9
20260510001512 84 360 9.0 15.0 0.00 0.00 0.00 5 1002.9
20260510000010 84 290 6.0 16.0 0.00 0.00 0.00 6 1002.9
20260509234513 84 309 8.0 12.0 0.00 0.00 0.00 8 1002.9
20260509233009 84 355 13.0 18.0 0.00 0.00 0.00 7 1002.9
20260509231509 83 5 7.0 14.0 0.00 0.00 0.00 7 1002.8
20260509230008 83 355 15.0 18.0 0.00 0.00 0.00 7 1002.9